Content
SEND FEEDBACK

Daily
Averages
Monthly
Summary
United States of America

LEDBETTER, TEXAS


Home > North America > United States > Texas
Elevation: 320 feet     Latitude: 30 16N     Longitude: 096 43W

WEATHER
 
SELECT A DAY
Number of Records: 217,668;   Date Range: 5/31/05 - 9/18/14
 
SHARE

PRINT THIS DATA

[ ← Previous Day ]
WEATHER ALMANAC - JANUARY 31, 2013
[ Next Day → ]
[ °C ]   °F
Weather ElementAverageHighLow
Temperature48.5 °F64.4 °F (3:15 pm)32 °F (6:15 am)
Dewpoint25.3 °F32 °F (10:55 pm)19.4 °F (1:55 pm)
Humidity46.5 %81 % (2:35 am)18 % (3:35 pm)
Barometer30.27 in30.33 in (10:15 am)30.21 in (4:35 pm)
Wind Speed6.6 mph16.1 mph (10:15 am)
Wind Gust20.7 mph (10:15 am)
Weather ElementAverage
Visibility10 mi
Wind DirectionSE (132.6 °)

Weather ElementTotal
Precipitation---
Heating Degree Days16.8 (Base 65)
Averaged from 69 records on January 31, 2013
WEATHER CONDITIONS BREAKOUT
WIND DIRECTION BREAKOUT
WEATHER BY HOUR - JANUARY 31, 2013
[ °C ]   °F
Local TimeTemperatureDewpointHumidityBarometerVisibilityWind DirectionWind SpeedGust SpeedPrecipitationEventsConditions
12:35 AM35.6 °F28.4 °F75 %30.26 in10.0 miCalmClear
12:55 AM37.4 °F26.6 °F65 %30.26 in10.0 miCalmClear
1:15 AM35.6 °F28.4 °F75 %30.26 in10.0 miCalmClear
1:35 AM35.6 °F28.4 °F75 %30.25 in10.0 miCalmClear
1:55 AM35.6 °F26.6 °F70 %30.25 in10.0 miCalmClear
2:15 AM35.6 °F26.6 °F70 %30.24 in10.0 miCalmClear
2:35 AM33.8 °F28.4 °F81 %30.25 in10.0 miCalmClear
2:55 AM35.6 °F26.6 °F70 %30.24 in10.0 miCalmClear
3:15 AM35.6 °F26.6 °F70 %30.24 in10.0 miCalmClear
3:35 AM35.6 °F28.4 °F75 %30.24 in10.0 miCalmClear
3:55 AM35.6 °F28.4 °F75 %30.23 in10.0 miCalmClear
4:15 AM35.6 °F28.4 °F75 %30.23 in10.0 miCalmClear
4:35 AM33.8 °F26.6 °F75 %30.23 in10.0 miSW (230°)4.6 mphClear
4:55 AM33.8 °F28.4 °F81 %30.23 in10.0 miCalmClear
5:15 AM33.8 °F26.6 °F75 %30.23 in10.0 miSW (230°)4.6 mphClear
5:35 AM35.6 °F26.6 °F70 %30.24 in10.0 miSW (220°)4.6 mphClear
5:55 AM33.8 °F26.6 °F75 %30.26 in10.0 miCalmThunderstormThunderstorm
6:15 AM32.0 °F26.6 °F80 %30.25 in10.0 miCalmClear
6:35 AM32.0 °F26.6 °F80 %30.25 in10.0 miCalmClear
6:55 AM33.8 °F26.6 °F75 %30.27 in10.0 miSW (220°)5.8 mphClear
7:15 AM33.8 °F26.6 °F75 %30.29 in10.0 miSW (220°)5.8 mphClear
7:55 AM35.6 °F26.6 °F70 %30.30 in10.0 miSW (220°)4.6 mphClear
8:15 AM35.6 °F26.6 °F70 %30.30 in10.0 miSSW (210°)4.6 mphClear
8:35 AM37.4 °F28.4 °F70 %30.31 in10.0 miSSW (210°)5.8 mphClear
8:55 AM41.0 °F28.4 °F61 %30.32 in10.0 miSSW (210°)10.4 mphClear
9:15 AM42.8 °F28.4 °F57 %30.32 in10.0 miSSW (200°)10.4 mphClear
9:35 AM46.4 °F28.4 °F50 %30.32 in10.0 miSSW (210°)10.4 mphClear
9:55 AM48.2 °F28.4 °F46 %30.32 in10.0 miSSW (210°)12.7 mph18.4 mphClear
10:15 AM51.8 °F26.6 °F38 %30.33 in10.0 miSSW (200°)16.1 mph20.7 mphClear
10:35 AM53.6 °F26.6 °F35 %30.33 in10.0 miSSW (210°)16.1 mphClear
10:55 AM55.4 °F23.0 °F29 %30.33 in10.0 miSSW (210°)15.0 mphClear
11:15 AM55.4 °F23.0 °F29 %30.33 in10.0 miSSW (210°)12.7 mphClear
11:35 AM57.2 °F23.0 °F27 %30.32 in10.0 miSSW (200°)12.7 mphClear
11:55 AM57.2 °F21.2 °F25 %30.31 in10.0 miSW (220°)15.0 mph18.4 mphClear
12:15 PM60.8 °F23.0 °F23 %30.31 in10.0 miSSW (200°)13.8 mphClear
12:35 PM60.8 °F23.0 °F23 %30.30 in10.0 miSSW (210°)15.0 mph20.7 mphClear
12:55 PM60.8 °F23.0 °F23 %30.28 in10.0 miSSW (210°)12.7 mph18.4 mphClear
1:15 PM60.8 °F23.0 °F23 %30.27 in10.0 miSouth (190°)15.0 mph18.4 mphClear
1:35 PM62.6 °F21.2 °F20 %30.26 in10.0 miSouth (190°)12.7 mphClear
1:55 PM62.6 °F19.4 °F19 %30.26 in10.0 miSW (220°)11.5 mphClear
2:15 PM62.6 °F19.4 °F19 %30.25 in10.0 miSW (220°)12.7 mphClear
2:35 PM62.6 °F21.2 °F20 %30.24 in10.0 miSSW (200°)13.8 mphClear
2:55 PM62.6 °F19.4 °F19 %30.24 in10.0 miSSW (200°)8.1 mphClear
3:15 PM64.4 °F21.2 °F19 %30.23 in10.0 miSouth (170°)11.5 mph16.1 mphClear
3:35 PM64.4 °F19.4 °F18 %30.23 in10.0 miSSW (210°)11.5 mphClear
3:55 PM64.4 °F21.2 °F19 %30.23 in10.0 miSSW (210°)12.7 mph17.3 mphClear
4:15 PM64.4 °F19.4 °F18 %30.22 in10.0 miSSW (210°)9.2 mphClear
4:35 PM64.4 °F19.4 °F18 %30.21 in10.0 miSouth (190°)11.5 mphClear
4:55 PM62.6 °F21.2 °F20 %30.22 in10.0 miSouth (180°)9.2 mphClear
5:15 PM62.6 °F21.2 °F20 %30.21 in10.0 miSouth (180°)6.9 mphClear
5:35 PM62.6 °F19.4 °F19 %30.22 in10.0 miSouth (180°)6.9 mphClear
5:55 PM60.8 °F19.4 °F20 %30.22 in10.0 miSouth (180°)5.8 mphClear
6:15 PM57.2 °F19.4 °F23 %30.22 in10.0 miCalmClear
6:35 PM55.4 °F21.2 °F26 %30.23 in10.0 miCalmClear
6:55 PM53.6 °F23.0 °F30 %30.24 in10.0 miCalmClear
7:15 PM50.0 °F28.4 °F43 %30.25 in10.0 miCalmClear
7:35 PM51.8 °F26.6 °F38 %30.26 in10.0 miCalmClear
7:55 PM50.0 °F23.0 °F35 %30.28 in10.0 miCalmClear
8:15 PM50.0 °F23.0 °F35 %30.28 in10.0 miSouth (170°)3.5 mphClear
8:35 PM48.2 °F26.6 °F43 %30.29 in10.0 miSouth (180°)3.5 mphClear
8:55 PM51.8 °F23.0 °F33 %30.29 in10.0 miCalmClear
9:15 PM50.0 °F28.4 °F43 %30.30 in10.0 miSSE (160°)10.4 mphClear
9:35 PM51.8 °F28.4 °F41 %30.30 in10.0 miSouth (170°)10.4 mphClear
9:55 PM51.8 °F30.2 °F44 %30.30 in10.0 miSouth (170°)10.4 mphClear
10:15 PM50.0 °F30.2 °F47 %30.31 in10.0 miSouth (180°)9.2 mphClear
10:35 PM50.0 °F30.2 °F47 %30.31 in10.0 miSouth (180°)10.4 mphClear
10:55 PM50.0 °F32.0 °F50 %30.31 in10.0 miSouth (180°)9.2 mphClear
11:15 PM50.0 °F32.0 °F50 %30.31 in10.0 miSouth (180°)8.1 mphClear
11:35 PM48.2 °F32.0 °F54 %30.31 in10.0 miSouth (190°)8.1 mphClear
Hourly data recorded from KRWV, located miles away from Ledbetter, Texas







STORIES FROM OUR PARTNERS